Location: Ash Shall?l al Awwal
(24.0167°N, 32.8667°E)
Time: 11:09:32
(UTC+00:00)

NOSS 3-2 (A) - Pass Details

Date: 02 March 2021
Orbit: 780 x 1427 km, 63.4° (Epoch: 31 March)

Event Time Altitude Azimuth Distance (km) Brightness Sun altitude
Rises 17:12:29 0° 186° (S) 3,247 6.3 -19.2°
Reaches altitude 10° 17:14:59 10° 178° (S) 2,325 5.5 -19.8°
Enters shadow 17:19:18 37° 124° (SE) 1,231 3.6 -20.8°
